Location: Unspecified
(30.5957°N, 0.0000°E)
Time: 06:04:22
(UTC+00:00)

CSL-04 DEB - Visible Passes

Search period start: 04 April 2026 00:00
Search period end: 14 April 2026 00:00
Orbit: 720 x 1216 km, 98.9° (Epoch: 29 March)

Date Brightness Start Highest point End Pass type
(mag) Time Alt. Az. Time Alt. Az. Time Alt. Az.
9 Apr ? 23:16:27 10° N 23:16:49 12° N 23:16:49 12° N visible
10 Apr ? 23:39:15 10° N 23:39:55 13° N 23:39:55 13° N visible
12 Apr ? 00:02:19 10° N 00:03:02 13° NNW 00:03:02 13° NNW visible
12 Apr ? 22:41:10 10° NNE 22:41:38 12° NNE 22:41:38 12° NNE visible
13 Apr ? 00:25:43 10° NNW 00:26:08 11° NNW 00:26:08 11° NNW visible
13 Apr ? 23:03:39 10° NNE 23:04:44 16° NNE 23:04:44 16° NNE visible
